TimeCEST,TemperatureF,Dew PointF,Humidity,Sea Level PressureIn,VisibilityMPH,Wind Direction,Wind SpeedMPH,Gust SpeedMPH,PrecipitationIn,Events,Conditions,WindDirDegrees,DateUTC
12:15 AM,69.8,68.0,94,30.06,5.6,SE,3.5,-,N/A,,Partly Cloudy,140,2012-09-09 22:15:00
12:45 AM,69.8,66.2,88,30.06,5.0,ESE,3.5,-,N/A,,Partly Cloudy,120,2012-09-09 22:45:00
1:15 AM,68.0,66.2,94,30.06,5.0,SE,2.3,-,N/A,,Partly Cloudy,130,2012-09-09 23:15:00
1:45 AM,68.0,66.2,94,30.06,4.3,SSE,2.3,-,N/A,,Scattered Clouds,150,2012-09-09 23:45:00
2:15 AM,69.8,68.0,94,30.04,4.3,Calm,Calm,-,N/A,,Scattered Clouds,0,2012-09-10 00:15:00
2:45 AM,69.8,68.0,94,30.04,5.0,ESE,1.2,-,N/A,,Scattered Clouds,120,2012-09-10 00:45:00
3:15 AM,68.0,66.2,94,30.04,5.0,East,4.6,-,N/A,,Scattered Clouds,100,2012-09-10 01:15:00
3:45 AM,68.0,66.2,94,30.04,5.6,SE,1.2,-,N/A,,Scattered Clouds,130,2012-09-10 01:45:00
4:15 AM,68.0,66.2,94,30.04,5.6,South,1.2,-,N/A,,Scattered Clouds,180,2012-09-10 02:15:00
4:45 AM,66.2,64.4,94,30.04,5.6,SSE,2.3,-,N/A,,Scattered Clouds,160,2012-09-10 02:45:00
5:15 AM,68.0,64.4,88,30.04,5.6,SSE,3.5,-,N/A,,Scattered Clouds,160,2012-09-10 03:15:00
5:45 AM,68.0,64.4,88,30.04,5.0,SE,2.3,-,N/A,,Scattered Clouds,140,2012-09-10 03:45:00
6:15 AM,66.2,62.6,88,30.04,5.0,SE,1.2,-,N/A,,Partly Cloudy,140,2012-09-10 04:15:00
6:45 AM,66.2,62.6,88,30.04,4.3,NNW,1.2,-,N/A,,Partly Cloudy,330,2012-09-10 04:45:00
7:15 AM,66.2,62.6,88,30.04,5.0,East,2.3,-,N/A,,Partly Cloudy,90,2012-09-10 05:15:00
7:45 AM,66.2,62.6,88,30.04,5.0,East,1.2,-,N/A,,Partly Cloudy,80,2012-09-10 05:45:00
8:15 AM,68.0,64.4,88,30.04,3.7,NNE,1.2,-,N/A,,Partly Cloudy,20,2012-09-10 06:15:00
8:45 AM,69.8,66.2,88,30.04,2.5,ENE,1.2,-,N/A,,Scattered Clouds,60,2012-09-10 06:45:00
9:15 AM,71.6,68.0,88,30.06,2.5,Calm,Calm,-,N/A,,Scattered Clouds,0,2012-09-10 07:15:00
9:45 AM,73.4,68.0,83,30.06,3.1,North,1.2,-,N/A,,Partly Cloudy,360,2012-09-10 07:45:00
10:15 AM,75.2,68.0,78,30.06,3.7,WNW,2.3,-,N/A,,Partly Cloudy,290,2012-09-10 08:15:00
10:45 AM,75.2,60.8,61,30.06,3.7,WSW,4.6,-,N/A,,Partly Cloudy,240,2012-09-10 08:45:00
11:15 AM,78.8,62.6,57,30.06,4.3,WNW,3.5,-,N/A,,Partly Cloudy,290,2012-09-10 09:15:00
12:15 PM,78.8,59.0,51,30.06,5.0,West,4.6,-,N/A,,Partly Cloudy,270,2012-09-10 10:15:00
12:45 PM,80.6,64.4,58,30.06,5.0,West,6.9,-,N/A,,Partly Cloudy,280,2012-09-10 10:45:00
1:15 PM,80.6,64.4,58,30.06,6.2,WSW,5.8,-,N/A,,Scattered Clouds,250,2012-09-10 11:15:00
1:45 PM,82.4,64.4,54,30.06,6.2,West,6.9,-,N/A,,Scattered Clouds,280,2012-09-10 11:45:00
2:15 PM,82.4,64.4,54,30.06,6.2,West,8.1,-,N/A,,Scattered Clouds,270,2012-09-10 12:15:00
2:45 PM,82.4,64.4,54,30.06,6.2,WSW,8.1,-,N/A,,Scattered Clouds,240,2012-09-10 12:45:00
3:15 PM,82.4,66.2,58,30.06,6.2,WSW,8.1,-,N/A,,Scattered Clouds,240,2012-09-10 13:15:00
3:45 PM,80.6,66.2,61,30.04,6.2,WSW,9.2,-,N/A,,Scattered Clouds,240,2012-09-10 13:45:00
4:15 PM,80.6,68.0,65,30.04,6.2,SW,9.2,-,N/A,,Partly Cloudy,230,2012-09-10 14:15:00
4:45 PM,78.8,68.0,69,30.04,6.2,SW,10.4,-,N/A,,Partly Cloudy,230,2012-09-10 14:45:00
5:15 PM,78.8,68.0,69,30.04,6.2,WSW,9.2,-,N/A,,Partly Cloudy,240,2012-09-10 15:15:00
5:45 PM,78.8,66.2,65,30.04,6.2,WSW,6.9,-,N/A,,Partly Cloudy,240,2012-09-10 15:45:00
6:15 PM,78.8,66.2,65,30.04,6.2,West,5.8,-,N/A,,Partly Cloudy,260,2012-09-10 16:15:00
6:45 PM,77.0,66.2,69,30.04,6.2,WSW,4.6,-,N/A,,Partly Cloudy,250,2012-09-10 16:45:00
7:15 PM,75.2,66.2,73,30.06,-9999.0,West,4.6,-,N/A,,Clear,260,2012-09-10 17:15:00
7:45 PM,75.2,68.0,78,30.06,-9999.0,WSW,2.3,-,N/A,,Clear,250,2012-09-10 17:45:00
8:15 PM,73.4,68.0,83,30.06,-9999.0,SW,2.3,-,N/A,,Clear,230,2012-09-10 18:15:00
8:45 PM,73.4,68.0,83,30.06,-9999.0,SSW,3.5,-,N/A,,Clear,200,2012-09-10 18:45:00
9:15 PM,71.6,68.0,88,30.06,5.0,SW,3.5,-,N/A,,Unknown,220,2012-09-10 19:15:00
9:45 PM,71.6,68.0,88,30.06,5.0,SW,2.3,-,N/A,,Unknown,220,2012-09-10 19:45:00
10:15 PM,71.6,68.0,88,30.06,5.0,South,1.2,-,N/A,,Unknown,170,2012-09-10 20:15:00
10:45 PM,71.6,68.0,88,30.06,5.0,South,2.3,-,N/A,,Clear,170,2012-09-10 20:45:00
11:15 PM,71.6,68.0,88,30.06,5.0,SSE,2.3,-,N/A,,Clear,160,2012-09-10 21:15:00
11:45 PM,71.6,69.8,94,30.06,5.0,South,2.3,-,N/A,,Partly Cloudy,170,2012-09-10 21:45:00